258  
ASUS46 KPDT 020625  
RWRPDT  
PENDLETON REGIONAL WEATHER ROUNDUP  
NATIONAL WEATHER SERVICE PENDLETON OREGON  
1000 PM PST THU DEC 1 2022  
 
NOTE: FAIR INDICATES FEW OR NO CLOUDS BELOW 12,000 FEET WITH NO  
SIGNIFICANT WEATHER AND/OR S TO VISIBILITY
.  
 
# INDICATES UNOFFICIAL STATION AND DATA  
 
WAZ520-020710-  
EAST SLOPES OF WASHINGTON CASCADES  
 
CITY SKY/WX TMP DP RH WIND PRES REMARKS
 
#BULLFROG N/A 23 22 96 CALM N/A  
#ELK HTS DOT N/A 24 23 96 W1 N/A  
#GLENWOOD N/A 18 16 92 CALM 29.93R  
#NILE N/A 16 14 92 CALM 29.13R  
#TROUT LAKE 1NE N/A 27 25 92 CALM 29.92R  
#TROUT LAKE 1E N/A 23 22 96 CALM 29.85R  

 
 
WAZ521-020710-  
SIMCOE HIGHLANDS  
 
CITY SKY/WX TMP DP RH WIND PRES REMARKS
 
#SATUS PASS DOT N/A 14 12 92 CALM N/A  
#CENTERVILLE 1SWN/A 31 26 81 W9 29.87R  
#LYLE 6NE N/A 31 28 88 S5 29.93R  
#PITT 4SE N/A 27 24 88 W5 29.95R  

 
 
WAZ026-020710-  
KITTITAS VALLEY  
 
CITY SKY/WX TMP DP RH WIND PRES REMARKS
 
ELLENSBURG AP FRZFOG 15 11 84 CALM 29.83R VSB 1/2  
#ELLENSBURG CWU N/A 18 16 92 CALM 29.88R  
#ELLENSBURG 1E N/A 18 16 92 CALM 29.97R  
#MANASTASH RDG N/A 21 17 84 W2 N/A  
#ROCKY CYN DOT N/A 17 16 96 W2 N/A  
#RYEGRASS DOT N/A 17 15 92 E2 N/A  
#THORP 6N N/A 19 17 92 CALM 29.83R  

 
 
WAZ027-020710-  
YAKIMA VALLEY  
 
CITY SKY/WX TMP DP RH WIND PRES REMARKS
 
YAKIMA AIRPORT MOCLEAR 16 13 88 W5 29.87R  
6HR MIN TEMP: 15; 6HR MAX TEMP: 32;  
 
YAKIMA-VAGABOND N/A 21 17 84 CALM 29.81R  
6HR MIN TEMP: 20; 6HR MAX TEMP: 31;  
 
#MABTON N/A 28 24 85 E7 29.89R  
#NACHES 2SW N/A 23 19 84 W1 29.81R  
#OUTLOOK DOT N/A 25 23 92 CALM N/A  
#PARKER DOT N/A 28 24 85 CALM N/A  
#TERRACE HTS N/A 19 17 92 CALM 29.90R  
#I82 S UMTANUM RN/A 19 14 80 NE5 N/A  
#UNION GAP DOT N/A 19 18 96 N1 N/A  
#ZILLAH DOT N/A 26 23 88 NE2 N/A  

 
 
WAZ028-020710-  
LOWER COLUMBIA BASIN...WASHINGTON  
 
CITY SKY/WX TMP DP RH WIND PRES REMARKS
 
HANFORD MOCLEAR 20 16 84 S5 29.87R  
6HR MIN TEMP: 16; 6HR MAX TEMP: 30;  
 
PASCO PTCLDY 24 18 77 NW5 29.92R  
6HR MIN TEMP: 23; 6HR MAX TEMP: 34; 6HR PCP: TRACE;  
 
PROSSER AWOS N/A 27 25 92 NE7 29.93R  
RICHLAND AWOS PTCLDY 23 21 92 N6 29.94R  
#BASIN CITY 5SW N/A 19 15 84 E3 29.89R  
#BENTON CITY N/A 23 18 81 CALM 29.84R  
#CONNELL 5N N/A 16 13 88 CALM 29.95R  
#ELTOPIA 6NW N/A 19 14 80 CALM 28.86R  
#KAHLOTUS N/A 23 19 84 CALM 29.91R  
#KENNEWICK 3S N/A 26 20 78 CALM 29.93R  
#PROSSER DOT N/A 26 20 78 E5 N/A  
#SAGEMOOR 2W N/A 20 15 81 N3 29.93R  
#TOUCHET 2S N/A 26 23 88 CALM 29.90R  

 
 
WAZ029-020710-  
FOOTHILLS OF THE BLUES...WASHINGTON  
 
CITY SKY/WX TMP DP RH WIND PRES REMARKS
 
WALLA WALLA AP CLOUDY 30 28 92 SW5 29.85R  
6HR MIN TEMP: 28; 6HR MAX TEMP: 35;  
 
#CLYDE 6NW N/A 23 20 88 CALM 29.86R  
#DELANEY DOT N/A 29 27 92 CALM N/A  
#LOWDEN 2SE N/A 26 23 88 CALM 29.77R  
#PRESCOTT N/A 30 27 88 CALM 29.89R  
#WALLA WALLA 5E N/A 31 28 88 E1 N/A  
#WHITMAN MISSIONN/A 29 27 92 CALM 29.96R  

 
 
WAZ030-020710-  
BLUE MOUNTAINS...WASHINGTON  
 
CITY SKY/WX TMP DP RH WIND PRES REMARKS
 

 
 
ORZ009-041-WAZ024-020710-  
COLUMBIA RIVER GORGE  
 
CITY SKY/WX TMP DP RH WIND PRES REMARKS
 
HOOD RIVER AP CLOUDY 34 30 85 CALM 29.93R  
THE DALLES AP CLOUDY 37 27 67 W3 29.92R  
6HR MIN TEMP: 35; 6HR MAX TEMP: 42;  
 
#CELILO DOT N/A 38 24 57 SW5 N/A  
#LYLE N/A 36 29 75 CALM 29.95R  
#MARYHILL N/A 37 23 56 SW9 N/A  
#RUFUS DOT N/A 38 26 62 CALM N/A  
 

 
 
ORZ510-020710-  
NORTH CENTRAL OREGON  
 
CITY SKY/WX TMP DP RH WIND PRES REMARKS
 
#ANTELOPE N/A 26 22 85 CALM 29.79R  
#COW CYN RST AREN/A 24 22 92 W6 N/A  
#DUFUR N/A 25 22 88 CALM 29.90R  
#GRASS VALLEY 1SN/A 27 22 81 CALM 29.88R  
#KENT DOT N/A 24 16 71 W7 N/A  
#MORO SCHOOL N/A 42 36 79 CALM 29.74R  
#SHANIKO 5WSW N/A 23 22 96 SW3 N/A  
#WAPANITIA AIRPON/A 29 20 69 W7 29.94R  
#WASCO DOT N/A 30 28 92 SW5 N/A  
#WASCO 5NE N/A 30 26 85 SW7 29.91R  

 
 
ORZ511-020710-  
CENTRAL OREGON  
 
CITY SKY/WX TMP DP RH WIND PRES REMARKS
 
BEND AIRPORT FAIR 23 16 74 SW6 29.85R  
MADRAS AIRPORT CLOUDY 27 21 78 W5 29.89R  
PRINEVILLE AP CLOUDY 27 16 63 W6 29.85R  
REDMOND AIRPORT CLOUDY 29 16 58 SW6 29.84R  
6HR MIN TEMP: 27; 6HR MAX TEMP: 32;  
 
#ASHWOOD SCHOOL N/A 29 19 66 CALM 29.82R  
#CULVER N/A 27 19 71 SW3 29.27R  
#PRINEVILLE N/A 28 19 68 CALM 30.02R  
 

 
 
 
ORZ509-020710-  
EAST SLOPES OF OREGON CASCADES  
 
CITY SKY/WX TMP DP RH WIND PRES REMARKS
 
SISTERS AWOS N/A 25 16 68 SW17 29.80R WCI 12  
SUNRIVER AWOS FAIR 18 12 77 SW10 29.85R  
#CAMP SHERMAN N/A 23 18 81 CALM 30.02R  
#LA PINE DOT N/A 16 11 80 SW2 N/A  
#LAVA BUTTE DOT N/A 16 14 92 SW8 N/A  
#SISTERS ODOT N/A 25 14 62 SW6 N/A  
#WANOGA BUTTE D N/A 11 7 83 W14 N/A WCI -5  
 

 
 
ORZ044-020710-  
LOWER COLUMBIA BASIN...OREGON  
 
CITY SKY/WX TMP DP RH WIND PRES REMARKS
 
HERMISTON FAIR 24 21 88 CALM 29.89R  
6HR MIN TEMP: 24; 6HR MAX TEMP: 40;  
 
#BOARDMAN SCHOOLN/A 36 28 72 CALM 29.87R  
#ECHO 8SW N/A 33 26 75 SW12 29.89R WCI 24  
#I-84 EX 198 DOTN/A 33 24 69 E9 N/A  
#UMATILLA N/A 28 23 81 CALM 29.91R  

 
 
ORZ507-020710-  
NORTHERN FOOTHILLS OF THE BLUES  
 
CITY SKY/WX TMP DP RH WIND PRES REMARKS
 
PENDLETON AIRPT MOCLDY 32 24 72 SW7 29.85R  
6HR MIN TEMP: 30; 6HR MAX TEMP: 36;  
 
#ATHENA N/A 32 26 78 S3 29.90R  
#CAYUSE N/A 32 26 78 W1 29.88R  
#HELIX SCHOOL N/A 27 23 85 CALM 29.90R  
#HOLDMAN 5SE N/A 27 23 85 CALM 29.85R  
#M-FREEWATER 5SEN/A 33 25 72 CALM 29.85R  
#PDT SUNRIDGE N/A 29 25 85 CALM 29.82R  
#PENDLETON 6SE N/A 32 27 82 CALM 29.85R  
#TUTUILLA N/A 30 26 85 CALM 29.90R  
#UMAPINE 2E N/A 27 23 85 CALM 29.90R  
 

 
 
ORZ508-020710-  
SOUTHERN FOOTHILLS OF THE BLUES  
 
CITY SKY/WX TMP DP RH WIND PRES REMARKS
 
#AJAX N/A 29 23 78 SW3 29.83R  
#HEPPNER EOC N/A 30 22 72 CALM 29.84R  
#HEPPNER 4NE N/A 26 21 81 SW3 29.90R  
#OLEX 4N N/A 32 26 78 SW6 29.92R  
#RUGGS 2SW N/A 26 20 78 SW5 29.95R  
 

 
 
ORZ502-503-020710-  
BLUE MOUNTAINS  
 
CITY SKY/WX TMP DP RH WIND PRES REMARKS
 
MEACHAM LGT SNOW 23 20 88 CALM 29.75R FOG  
#BATTLE MTN DOT N/A 18 14 84 CALM N/A  
#LADD CYN SMT N/A 18 16 92 CALM N/A  
#LADD CREEK ODOTN/A 21 18 88 W2 N/A  
#N POWDER DOT N/A 16 14 92 E1 N/A  
#TOLLGATE N/A 18 16 92 CALM 29.75R  
#TROY SCHOOL N/A 26 23 88 CALM 29.73R  
#WESTON 4E N/A 24 21 88 CALM 29.86R  

 
 
ORZ505-020710-  
JOHN DAY BASIN  
 
CITY SKY/WX TMP DP RH WIND PRES REMARKS
 
JOHN DAY MOCLDY 22 21 96 W3 29.79R  
#DAYVILLE SCHOOLN/A 28 24 85 CALM 29.81R  
#MITCHELL 8NW N/A 25 16 68 CALM 29.90R  
#MONUMENT HS N/A 29 23 78 CALM 29.79R  
#MT. VERNON 5SE N/A 22 20 92 CALM 29.76R  

 
 
ORZ506-020710-  
OCHOCO AND JOHN DAY HIGHLANDS  
 
CITY SKY/WX TMP DP RH WIND PRES REMARKS
 
#BUCK CREEK DOT N/A 20 13 74 W8 N/A  
#HORSE RIDGE DO N/A 20 11 67 CALM N/A  
#KEYES SMT DOT N/A 21 15 77 W3 N/A  
#PAULINA ODOT N/A 22 20 92 W5 N/A  
#PRAIRIE CITY N/A 22 17 81 CALM 29.73R  
#SENECA 9NW N/A 17 15 92 CALM 29.86R  

 
 
ORZ049-020710-  
GRANDE RONDE VALLEY  
 
CITY SKY/WX TMP DP RH WIND PRES REMARKS
 
LA GRANDE LGT SNOW 25 23 92 SE5 29.82R FOG  
#COVE SCHOOL N/A 25 22 88 CALM 29.81R  
#COVE 6NW N/A 25 21 84 CALM 29.89R  
#ELGIN 1E N/A 26 21 81 CALM N/A  
#IMBLER SCHOOL N/A 24 21 88 CALM 29.78R  
#ISLAND CITY 4N N/A 33 32 96 CALM 29.97R  
#LADD CYN DOT N/A 25 22 88 SE9 N/A  
#UNION 1S N/A 25 21 84 CALM 29.88R  

 
 
ORZ050-020710-  
WALLOWA COUNTY  
 
CITY SKY/WX TMP DP RH WIND PRES REMARKS
 
JOSEPH AIRPORT LGT SNOW 15 12 88 MISG 29.74R  
#ENTERPRISE HS N/A 14 11 88 CALM 29.76R  
#IMNAHA SCHOOL N/A 26 20 78 CALM 29.91R  
#JOSEPH 3N N/A 13 10 87 CALM 29.81R  
#LOSTINE 3SE N/A 15 12 88 CALM 29.79R  
#MT HOWARD 8000 N/A 8 4 83 NW2 29.42R  
#WALLOWA SCHOOL N/A 20 17 88 CALM 29.90R  
 

 
 
CLICK HERE TO GO TO PREVIOUS BULLETINS.

The Nexlab OR Page
The Nexlab WA Page Main Text Page